Simultaneous Nadir Overpasses (SNOs) Predictions

Prediction of SNOs between METOP-A and NOAA-19 Satellite Orbit:

Table of predicted SNOs for the next 14.0 days since TLE Epoch: 8/7/2015
Index Date (METOP-A) Time (METOP-A) Lat,Lon (METOP-A) SZA (METOP-A ) Date (NOAA-19) Time (NOAA-19) Lat,Lon (NOAA-19) SZA (NOAA-19 ) Distance(km) Time Diff (sec)
1 08/07/2015 23:36:07 75.23,-176.64 58.90 08/07/2015 23:34:53 75.25,-176.63 58.93 2.70 74
2 08/08/2015 00:26:49 -75.23, -9.32 121.10 08/08/2015 00:25:57 -75.21, -9.28 121.11 2.03 52
3 08/08/2015 01:17:29 75.21, 157.96 58.90 08/08/2015 01:16:55 75.23, 157.94 58.92 2.12 34
4 08/08/2015 02:08:11 -75.21, -34.72 121.10 08/08/2015 02:07:59 -75.19, -34.70 121.12 2.25 12
5 08/08/2015 02:58:51 75.19, 132.56 58.90 08/08/2015 02:58:57 75.20, 132.51 58.91 1.93 6
6 08/08/2015 03:49:33 -75.19, -60.12 121.10 08/08/2015 03:50:01 -75.16, -60.13 121.12 2.86 28
7 08/08/2015 04:40:13 75.17, 107.16 58.90 08/08/2015 04:40:59 75.18, 107.08 58.91 2.24 46
8 08/08/2015 05:30:56 -75.12, -85.66 121.14 08/08/2015 05:32:03 -75.13, -85.56 121.13 3.40 67
9 08/08/2015 06:21:45 74.66, 80.41 58.45 08/08/2015 06:22:52 74.73, 82.91 58.45 73.70 67
10 08/18/2015 11:18:24 75.76, 9.33 62.58 08/18/2015 11:17:17 75.77, 6.32 62.64 82.33 67
11 08/18/2015 12:09:17 -75.25, 175.08 117.91 08/18/2015 12:08:12 -75.26, 175.21 117.90 3.98 65
12 08/18/2015 12:59:56 75.27, -17.53 62.12 08/18/2015 12:59:09 75.28, -17.60 62.14 2.74 47
13 08/18/2015 13:50:39 -75.22, 149.67 117.91 08/18/2015 13:50:14 -75.23, 149.78 117.90 3.06 25
14 08/18/2015 14:41:18 75.25, -42.93 62.13 08/18/2015 14:41:11 75.26, -43.03 62.14 3.18 7
15 08/18/2015 15:32:01 -75.20, 124.27 117.91 08/18/2015 15:32:16 -75.21, 124.35 117.91 2.16 15
16 08/18/2015 16:22:40 75.22, -68.33 62.13 08/18/2015 16:23:13 75.23, -68.46 62.14 3.83 33
17 08/18/2015 17:13:23 -75.18, 98.87 117.90 08/18/2015 17:14:18 -75.18, 98.92 117.91 1.35 55
18 08/18/2015 18:04:03 75.16, -93.87 62.09 08/18/2015 18:05:14 75.16, -93.75 62.08 3.47 71




NCC Satellite Simultaneous Nadir Overpasses (SNOs) Prediction Service
